Regional Weather Roundup
Issued by NWS Mobile, AL

Home | Current Version | Previous Version | Text Only | Print | Product List | Glossary On
Versions: 1 2 3 4 5 6 7 8 9 10 11 12 13 14 15 16 17 18 19 20 21 22 23 24 25 26 27
000
ASUS44 KMOB 191112
RWRMOB
REGIONAL WEATHER ROUNDUP
NATIONAL WEATHER SERVICE MOBILE AL
600 AM CDT SAT AUG 19 2017

NOTE: "FAIR" INDICATES FEW OR NO CLOUDS BELOW 12,000 FEET WITH NO
      SIGNIFICANT WEATHER AND/OR OBSTRUCTIONS TO VISIBILITY.

  * THESE STATIONS ARE PART OF THE UNIVERSITY OF SOUTH ALABAMA
    MESONET AND ARE NOT UNDER NWS OR FAA QUALITY CONTROL.

ALZ061>064-191200-
COASTAL ALABAMA

CITY           SKY/WX    TMP DP  RH WIND       PRES   REMARKS
MOBILE REG APT PTCLDY    74  72  93 CALM      30.00S
BROOKLEY FIELD CLEAR     76  75  97 CALM      29.99F
USA CAMPUS*      N/A     70  68  94 CALM      29.99S
DOG RIVER*     NOT AVBL


CITY           SKY/WX    TMP DP  RH WIND       PRES   REMARKS
GULF SHORES    MOCLDY    76  76 100 CALM      29.98S

$$

ALZ051>060-191200-
INTERIOR SOUTHWEST AND SOUTH CENTRAL ALABAMA

CITY           SKY/WX    TMP DP  RH WIND       PRES   REMARKS
GREENVILLE     CLEAR     75  71  87 N3        29.99S
EVERGREEN      CLEAR     73  71  93 CALM      29.99S
ATMORE*        NOT AVBL
ANDALUSIA/OPP  CLEAR     77  73  87 CALM      29.98S
ANDALUSIA*       N/A     75  73  94 N5        29.99S
FLORALA APT      N/A    N/A N/A N/A MISG      30.00S
FLORALA*         N/A     73  73 100 CALM      30.67R

$$

FLZ001>006-191200-
WESTERN FLORIDA PANHANDLE

CITY           SKY/WX    TMP DP  RH WIND       PRES   REMARKS
PENSACOLA      CLEAR     77  73  87 NW3       29.97S
NAS PENSACOLA  PTCLDY    76  73  91 NW3       29.97R
MILTON         CLEAR     73  72  96 CALM      29.98R
WHTNG S FIELD  CLEAR     75  72  90 CALM      29.98R


CITY           SKY/WX    TMP DP  RH WIND       PRES   REMARKS
JAY*             N/A     75  73  94 N5        29.98S
DUKE FIELD     PTCLDY    73  72  95 NE6       29.97S
CRESTVIEW      PTCLDY    74  72  93 N3        29.99R
VALPARAISO     PTCLDY    76  72  88 NW3       29.96R
DESTIN         PTCLDY    81  73  76 W3        29.97R

$$

MSZ076-079-191200-
INTERIOR SOUTHEAST MISSISSIPPI

CITY           SKY/WX    TMP DP  RH WIND       PRES   REMARKS
LEAKESVILLE*   NOT AVBL
AGRICOLA*        N/A     73  72  94 CALM      29.99R

$$

MARINE OBSERVATIONS

STATION/POSITION TIME  TEMP    WIND        PRES    WAVE
                       AIR SEA DIR/SP/G            HT/PER
                 (UTC) (F)     (DEG/KT/KT) (MB)    (FT/S)
PASCAGOULA       1048   77     350/  4/  4 1015.2S
PETIT BOIS ISLND 1048   81     330/  7/  8 1015.8F
GRAND BAY        0945   77      10/  4     1016.0S
KATRINA CUT      1030   81     340/ 11     1015.2S
CEDAR POINT      1030   78     360/  7     1015.2S
E DAUPHIN ISLAND 1000   81     340/ 12/ 13 1014.7F
MIDDLE BAY LIGHT 1030   81     330/  7     1014.9S
USCG MOBILE BAY  1048   76 86  320/  3/  5 1015.8F
STATE DOCKS      1048   77 86              1015.0F
MEAHER PARK      1030   78     330/  4     1015.2F
WEEKS BAY        0945   76                   N/A
FORT MORGAN      1048   82     350/ 13/ 14   N/A
12 S ORANGE BCH  1050   82 86  350/  8/ 10 1014.7R   1
PENSACOLA BAY    1048   77 86              1015.1R
64 S DAUPHIN ISL 1100   86 88  280/ 14/ 16 1014.9
67 S FORT MORGAN 1030   84     330/  2     1015.2R

$$

SELECTED LOCATIONS ACROSS THE REGION

CITY           SKY/WX    TMP DP  RH WIND       PRES   REMARKS
NEW ORLEANS    PTCLDY    79  78  97 W3        30.00R
GULFPORT       CLEAR     77  76  96 W3        29.98S
PASCAGOULA AP  CLEAR     73  71  93 CALM      29.98S
PASCAGOULA*      N/A    N/A N/A N/A CALM        N/A
HATTIESBURG    CLEAR     74  74 100 CALM      30.00S
LAUREL         CLEAR     73  73 100 CALM      30.01S FOG
MERIDIAN       CLEAR     75  74  96 SW3       29.99F
JACKSON        CLEAR     76  74  93 CALM      29.99S
MONTGOMERY     CLEAR     74  70  87 CALM      29.99S
TROY           CLEAR     71  71 100 CALM      30.00R
ASHFORD*         N/A     75  73  94 N5        29.99S
DOTHAN         PTCLDY    75  74  96 NW5       30.02S
PANAMA CITY    MOCLDY    77  75  93 N3        29.97R

$$





USA.gov is the U.S. government's official web portal to all federal, state and local government web resources and services.